Regional Weather Roundup
Issued by NWS Sioux Falls, SD

Home | Current Version | Previous Version | Graphics & Text | Print | Product List | Glossary Off
Versions: 1 2 3 4 5 6 7 8 9 10 11 12 13 14 15 16 17 18 19 20 21 22 23 24 25 26 27 28 29 30 31 32 33 34 35 36 37 38 39 40 41 42 43 44 45 46 47 48 49 50

000
ASUS43 KFSD 270610
RWRFSD

WEATHER ROUNDUP FOR SE SOUTH DAKOTA/SW MINNESOTA/NW IOWA
NATIONAL WEATHER SERVICE SIOUX FALLS SD
100 AM CDT THU JUL 27 2017

NOTE: "FAIR" INDICATES FEW OR NO CLOUDS BELOW 12,000 FEET WITH NO
SIGNIFICANT WEATHER AND OR OBSTRUCTIONS TO VISIBILITY.


SDZ038>040-050-052>070-270700-
SOUTHEAST SOUTH DAKOTA

CITY           SKY/WX    TMP DP  RH WIND       PRES   REMARKS
BROOKINGS      CLEAR     63  62  97 CALM      30.12R
CHAMBERLAIN    CLEAR     68  64  85 CALM      30.12S
6HR MIN TEMP:  65; 6HR MAX TEMP:  86;

HURON          CLEAR     62  60  93 CALM      30.10R
6HR MIN TEMP:  62; 6HR MAX TEMP:  83; 6HR PCP: TRACE;

MADISON        FAIR      61  61 100 N6        30.12S
MITCHELL       CLEAR     67  63  87 NW3       30.10R
6HR MIN TEMP:  66; 6HR MAX TEMP:  82;

SIOUX FALLS    CLEAR     66  63  90 N7        30.09R
6HR MIN TEMP:  64; 6HR MAX TEMP:  80;

WINNER         FAIR      68  58  70 S7        30.13S
YANKTON        CLEAR     66  61  84 N5        30.09R
$$

MNZ071-072-080-081-089-090-097-098-270700-
SOUTHWEST MINNESOTA

CITY           SKY/WX    TMP DP  RH WIND       PRES   REMARKS
FAIRMONT       PTCLDY    64  62  93 N6        30.06R
JACKSON        CLEAR     63  59  88 CALM      30.08S
LUVERNE        CLEAR     63  59  88 NE3       30.10R
MARSHALL       CLEAR     63  61  93 W6        30.09R
6HR MIN TEMP:  63; 6HR MAX TEMP:  78;

MONTEVIDEO     CLEAR     64  55  72 N5        30.08S
PIPESTONE      CLEAR     66  61  82 N5        30.11S
REDWOOD FALLS  CLEAR     68  61  78 NW6       30.06R
TRACY          CLEAR     66  63  89 NW6       30.10R
WINDOM         CLEAR     63  61  94 NW6       30.08S
$$

IAZ001>003-012>014-020>022-031-032-NEZ013-014-SDZ071-270700-
NORTHWEST IOWA

CITY           SKY/WX    TMP DP  RH WIND       PRES   REMARKS
CHEROKEE       CLEAR     66  64  94 N3        30.06S
DENISON          N/A     72  70  94 NE7       30.06R
ESTHERVILLE    CLEAR     63  62  97 N6        30.05S
ORANGE CITY    CLEAR     68  63  83 N5        30.08S
SHELDON        PTCLDY    59  59 100 CALM      30.07S
SIOUX CITY     CLEAR     71  63  75 N8        30.05S
6HR MIN TEMP:  71; 6HR MAX TEMP:  85;

SPENCER        CLEAR     61  60  97 NW6       30.07S
6HR MIN TEMP:  61; 6HR MAX TEMP:  82;

STORM LAKE     CLEAR     68  63  83 NE8       30.06S
$$

ABBREVIATIONS USED IN REMARKS
   TC - TEMPERATURE IN CELSIUS
  WCI - WIND CHILL INDEX
   HX - HEAT INDEX
  VSB - VISIBILITY





USA.gov is the U.S. government's official web portal to all federal, state and local government web resources and services.